Location: ???? ????
(41.4149°N, 22.8816°E)
Time: 12:13:44
(UTC+00:00)

Cosmos 1190 Rocket - Pass Details

Date: 14 July 2020
Orbit: 756 x 781 km, 74.1° (Epoch: 09 August)

Event Time Altitude Azimuth Distance (km) Brightness Sun altitude
Exits shadow 00:26:22 51° 218° (SW) 951 4.0 -21.8°
Maximum altitude 00:27:38 76° 289° (WNW) 789 3.9 -21.7°
Drops below altitude 10° 00:32:54 10° 17° (NNE) 2,314 7.6 -21.2°
Sets 00:35:18 0° 19° (NNE) 3,249 8.7 -21.0°
